Location: Gro�wechsungen
(51.4926°N, 10.6901°E)
Time: 14:27:32
(UTC+00:00)

Cosmos 2082 Rocket - Pass Details

Date: 17 January 2021
Orbit: 832 x 854 km, 71.0° (Epoch: 04 March)

Event Time Altitude Azimuth Distance (km) Brightness Sun altitude
Rises 18:31:18 0° 330° (NNW) 3,437 5.7 -25.8°
Reaches altitude 10° 18:34:12 10° 343° (NNW) 2,498 4.8 -26.3°
Enters shadow 18:37:02 22° 9° (N) 1,799 3.8 -26.7°
